Time,TemperatureF,DewpointF,PressureIn,WindDirection,WindDirectionDegrees,WindSpeedMPH,WindSpeedGustMPH,Humidity,HourlyPrecipIn,Conditions,Clouds,dailyrainin,SoftwareType,DateUTC
2013-02-08 00:00:00,47.3,43.3,29.94,East,79,3.0,8.0,86,0.00,,,0.19,WeatherCatV1.11B39,2013-02-08 05:00:00,
2013-02-08 00:05:00,47.3,43.6,29.94,ENE,72,6.0,11.0,87,0.00,,,0.00,WeatherCatV1.11B39,2013-02-08 05:05:00,
2013-02-08 00:10:00,47.3,43.3,29.94,East,82,5.0,11.0,86,0.00,,,0.00,WeatherCatV1.11B39,2013-02-08 05:10:00,
2013-02-08 00:15:00,47.3,43.3,29.93,ENE,76,7.0,8.0,86,0.00,,,0.00,WeatherCatV1.11B39,2013-02-08 05:15:00,
2013-02-08 00:20:00,47.3,43.3,29.93,East,89,6.0,10.0,86,0.00,,,0.00,WeatherCatV1.11B39,2013-02-08 05:20:00,
2013-02-08 00:25:00,47.1,43.1,29.93,ENE,72,6.0,8.0,86,0.00,,,0.00,WeatherCatV1.11B39,2013-02-08 05:25:00,
2013-02-08 00:30:00,47.1,43.1,29.93,ENE,62,10.0,11.0,86,0.00,,,0.00,WeatherCatV1.11B39,2013-02-08 05:30:00,
2013-02-08 00:35:00,47.0,43.0,29.93,East,88,3.0,8.0,86,0.00,,,0.00,WeatherCatV1.11B39,2013-02-08 05:35:00,
2013-02-08 00:40:00,47.0,43.3,29.93,East,90,3.0,9.0,87,0.00,,,0.00,WeatherCatV1.11B39,2013-02-08 05:40:00,
2013-02-08 00:45:00,46.8,43.1,29.93,East,92,4.0,10.0,87,0.00,,,0.00,WeatherCatV1.11B39,2013-02-08 05:45:00,
2013-02-08 00:50:00,46.8,43.1,29.93,East,93,5.0,10.0,87,0.00,,,0.00,WeatherCatV1.11B39,2013-02-08 05:50:00,
2013-02-08 00:55:00,46.7,43.0,29.93,ENE,65,6.0,7.0,87,0.00,,,0.00,WeatherCatV1.11B39,2013-02-08 05:55:00,
2013-02-08 01:00:00,46.7,43.3,29.93,East,96,3.0,7.0,88,0.00,,,0.00,WeatherCatV1.11B39,2013-02-08 06:00:00,
2013-02-08 01:05:00,46.7,43.0,29.93,ESE,114,2.0,8.0,87,0.00,,,0.00,WeatherCatV1.11B39,2013-02-08 06:05:00,
2013-02-08 01:10:00,46.7,43.3,29.93,ENE,69,0.0,4.0,88,0.00,,,0.00,WeatherCatV1.11B39,2013-02-08 06:10:00,
2013-02-08 01:15:00,46.7,43.0,29.93,East,92,2.0,5.0,87,0.00,,,0.00,WeatherCatV1.11B39,2013-02-08 06:15:00,
2013-02-08 01:20:00,46.5,42.8,29.93,ENE,76,3.0,8.0,87,0.00,,,0.00,WeatherCatV1.11B39,2013-02-08 06:20:00,
2013-02-08 01:25:00,46.7,43.0,29.93,ENE,65,3.0,3.0,87,0.00,,,0.00,WeatherCatV1.11B39,2013-02-08 06:25:00,
2013-02-08 01:30:00,46.7,43.0,29.93,East,82,0.0,5.0,87,0.00,,,0.00,WeatherCatV1.11B39,2013-02-08 06:30:00,
2013-02-08 01:35:00,46.7,43.0,29.93,East,85,6.0,6.0,87,0.00,,,0.00,WeatherCatV1.11B39,2013-02-08 06:35:00,
2013-02-08 01:40:00,46.7,43.0,29.93,East,80,7.0,7.0,87,0.00,,,0.00,WeatherCatV1.11B39,2013-02-08 06:40:00,
2013-02-08 01:45:00,46.7,42.7,29.94,ENE,72,2.0,5.0,86,0.00,,,0.00,WeatherCatV1.11B39,2013-02-08 06:45:00,
2013-02-08 01:50:00,46.7,42.7,29.94,East,82,0.0,3.0,86,0.00,,,0.00,WeatherCatV1.11B39,2013-02-08 06:50:00,
2013-02-08 01:55:00,46.7,42.7,29.94,East,89,0.0,3.0,86,0.00,,,0.00,WeatherCatV1.11B39,2013-02-08 06:55:00,
2013-02-08 02:00:00,46.7,42.7,29.94,East,79,4.0,6.0,86,0.00,,,0.00,WeatherCatV1.11B39,2013-02-08 07:00:00,
2013-02-08 02:05:00,46.7,42.7,29.94,ENE,73,0.0,3.0,86,0.00,,,0.00,WeatherCatV1.11B39,2013-02-08 07:05:00,
2013-02-08 02:10:00,46.7,42.7,29.94,ENE,75,0.0,2.0,86,0.00,,,0.00,WeatherCatV1.11B39,2013-02-08 07:10:00,
2013-02-08 02:15:00,46.7,42.7,29.93,ENE,75,0.0,1.0,86,0.00,,,0.00,WeatherCatV1.11B39,2013-02-08 07:15:00,
2013-02-08 02:20:00,46.7,42.7,29.93,ENE,75,0.0,0.0,86,0.00,,,0.00,WeatherCatV1.11B39,2013-02-08 07:20:00,
2013-02-08 02:25:00,46.7,42.7,29.93,ENE,75,0.0,0.0,86,0.00,,,0.00,WeatherCatV1.11B39,2013-02-08 07:25:00,
2013-02-08 02:30:00,46.7,42.7,29.93,ENE,75,0.0,0.0,86,0.00,,,0.00,WeatherCatV1.11B39,2013-02-08 07:30:00,
2013-02-08 02:32:00,46.7,42.7,29.93,ENE,75,0.0,0.0,86,0.00,,,0.00,WeatherCatV1.11B39,2013-02-08 07:32:00,
2013-02-08 02:35:00,46.5,42.8,29.93,ENE,75,0.0,0.0,87,0.00,,,0.00,WeatherCatV1.11B39,2013-02-08 07:35:00,
2013-02-08 02:40:00,46.5,42.8,29.93,ENE,75,0.0,0.0,87,0.00,,,0.00,WeatherCatV1.11B39,2013-02-08 07:40:00,
2013-02-08 02:45:00,46.4,43.0,29.93,ENE,75,0.0,0.0,88,0.00,,,0.00,WeatherCatV1.11B39,2013-02-08 07:45:00,
2013-02-08 02:50:00,46.2,42.8,29.93,ENE,75,0.0,0.0,88,0.00,,,0.00,WeatherCatV1.11B39,2013-02-08 07:50:00,
2013-02-08 02:55:00,46.1,43.0,29.93,ENE,75,0.0,0.0,89,0.00,,,0.00,WeatherCatV1.11B39,2013-02-08 07:55:00,
2013-02-08 03:00:00,46.0,42.9,29.93,ENE,75,0.0,0.0,89,0.00,,,0.00,WeatherCatV1.11B39,2013-02-08 08:00:00,
2013-02-08 03:05:00,46.0,43.2,29.93,ENE,75,0.0,0.0,90,0.00,,,0.00,WeatherCatV1.11B39,2013-02-08 08:05:00,
2013-02-08 03:10:00,46.0,43.5,29.93,ENE,75,0.0,0.0,91,0.00,,,0.00,WeatherCatV1.11B39,2013-02-08 08:10:00,
2013-02-08 03:15:00,46.0,43.5,29.92,ENE,75,0.0,0.0,91,0.00,,,0.00,WeatherCatV1.11B39,2013-02-08 08:15:00,
2013-02-08 03:20:00,46.0,43.8,29.92,ENE,75,0.0,0.0,92,0.00,,,0.00,WeatherCatV1.11B39,2013-02-08 08:20:00,
2013-02-08 03:25:00,46.0,43.8,29.92,ENE,75,0.0,0.0,92,0.00,,,0.00,WeatherCatV1.11B39,2013-02-08 08:25:00,
2013-02-08 03:30:00,45.4,43.2,29.92,ENE,75,0.0,0.0,92,0.00,,,0.00,WeatherCatV1.11B39,2013-02-08 08:30:00,
2013-02-08 03:35:00,45.2,43.0,29.92,ENE,75,0.0,0.0,92,0.00,,,0.00,WeatherCatV1.11B39,2013-02-08 08:35:00,
2013-02-08 03:40:00,45.2,43.3,29.92,ENE,75,0.0,0.0,93,0.00,,,0.00,WeatherCatV1.11B39,2013-02-08 08:40:00,
2013-02-08 03:45:00,45.2,43.3,29.91,ENE,75,0.0,0.0,93,0.00,,,0.00,WeatherCatV1.11B39,2013-02-08 08:45:00,
2013-02-08 03:50:00,45.2,43.3,29.91,ENE,75,0.0,0.0,93,0.00,,,0.00,WeatherCatV1.11B39,2013-02-08 08:50:00,
2013-02-08 03:55:00,45.4,43.8,29.91,ENE,75,0.0,0.0,94,0.00,,,0.00,WeatherCatV1.11B39,2013-02-08 08:55:00,
2013-02-08 04:00:00,45.5,43.9,29.91,ENE,75,0.0,0.0,94,0.00,,,0.00,WeatherCatV1.11B39,2013-02-08 09:00:00,
2013-02-08 04:05:00,45.4,43.8,29.91,ENE,75,0.0,0.0,94,0.00,,,0.00,WeatherCatV1.11B39,2013-02-08 09:05:00,
2013-02-08 04:10:00,45.4,43.8,29.91,ENE,75,0.0,0.0,94,0.00,,,0.00,WeatherCatV1.11B39,2013-02-08 09:10:00,
2013-02-08 04:15:00,45.2,43.6,29.91,ENE,75,0.0,0.0,94,0.00,,,0.00,WeatherCatV1.11B39,2013-02-08 09:15:00,
2013-02-08 04:20:00,45.2,43.6,29.91,ENE,75,0.0,0.0,94,0.00,,,0.00,WeatherCatV1.11B39,2013-02-08 09:20:00,
2013-02-08 04:25:00,45.2,43.6,29.91,ENE,75,0.0,0.0,94,0.00,,,0.00,WeatherCatV1.11B39,2013-02-08 09:25:00,
2013-02-08 04:30:00,45.2,43.6,29.91,ENE,75,0.0,0.0,94,0.00,,,0.00,WeatherCatV1.11B39,2013-02-08 09:30:00,
2013-02-08 04:35:00,45.2,43.6,29.91,ENE,75,0.0,0.0,94,0.00,,,0.00,WeatherCatV1.11B39,2013-02-08 09:35:00,
2013-02-08 04:40:00,45.2,43.6,29.91,ENE,75,0.0,0.0,94,0.00,,,0.00,WeatherCatV1.11B39,2013-02-08 09:40:00,
2013-02-08 04:45:00,45.2,43.9,29.92,ENE,75,0.0,0.0,95,0.00,,,0.00,WeatherCatV1.11B39,2013-02-08 09:45:00,
2013-02-08 04:50:00,45.2,43.9,29.92,ENE,75,0.0,0.0,95,0.00,,,0.00,WeatherCatV1.11B39,2013-02-08 09:50:00,
2013-02-08 04:55:00,45.2,43.9,29.92,ENE,75,0.0,0.0,95,0.00,,,0.00,WeatherCatV1.11B39,2013-02-08 09:55:00,
2013-02-08 05:00:00,45.2,43.9,29.92,ENE,75,0.0,0.0,95,0.00,,,0.00,WeatherCatV1.11B39,2013-02-08 10:00:00,
2013-02-08 05:05:00,45.2,43.9,29.92,ENE,75,0.0,0.0,95,0.00,,,0.00,WeatherCatV1.11B39,2013-02-08 10:05:00,
2013-02-08 05:10:00,45.2,43.9,29.92,ENE,75,0.0,0.0,95,0.00,,,0.00,WeatherCatV1.11B39,2013-02-08 10:10:00,
2013-02-08 05:15:00,45.2,43.9,29.92,ENE,75,0.0,0.0,95,0.00,,,0.00,WeatherCatV1.11B39,2013-02-08 10:15:00,
2013-02-08 05:20:00,45.2,43.9,29.92,ENE,75,0.0,0.0,95,0.00,,,0.00,WeatherCatV1.11B39,2013-02-08 10:20:00,
2013-02-08 05:25:00,45.2,43.9,29.92,ENE,75,0.0,0.0,95,0.00,,,0.00,WeatherCatV1.11B39,2013-02-08 10:25:00,
2013-02-08 05:30:00,45.2,43.9,29.92,ENE,75,0.0,0.0,95,0.00,,,0.00,WeatherCatV1.11B39,2013-02-08 10:30:00,
2013-02-08 05:35:00,45.2,43.9,29.92,ENE,75,0.0,0.0,95,0.00,,,0.00,WeatherCatV1.11B39,2013-02-08 10:35:00,
2013-02-08 05:40:00,45.2,43.9,29.92,ENE,75,0.0,0.0,95,0.00,,,0.00,WeatherCatV1.11B39,2013-02-08 10:40:00,
2013-02-08 05:45:00,45.2,43.9,29.92,ENE,75,0.0,0.0,95,0.00,,,0.00,WeatherCatV1.11B39,2013-02-08 10:45:00,
2013-02-08 05:50:00,45.2,43.9,29.92,ENE,75,0.0,0.0,95,0.00,,,0.00,WeatherCatV1.11B39,2013-02-08 10:50:00,
2013-02-08 05:55:00,45.2,43.9,29.92,ENE,75,0.0,0.0,95,0.00,,,0.00,WeatherCatV1.11B39,2013-02-08 10:55:00,
2013-02-08 06:00:00,45.2,44.1,29.94,ENE,75,0.0,0.0,96,0.00,,,0.00,WeatherCatV1.11B39,2013-02-08 11:00:00,
2013-02-08 06:05:00,45.2,44.1,29.94,ENE,75,0.0,0.0,96,0.00,,,0.00,WeatherCatV1.11B39,2013-02-08 11:05:00,
2013-02-08 06:10:00,45.2,44.1,29.94,ENE,75,0.0,0.0,96,0.00,,,0.00,WeatherCatV1.11B39,2013-02-08 11:10:00,
2013-02-08 06:15:00,45.2,44.1,29.94,ENE,75,0.0,0.0,96,0.00,,,0.00,WeatherCatV1.11B39,2013-02-08 11:15:00,
2013-02-08 06:20:00,45.2,44.1,29.94,ENE,75,0.0,0.0,96,0.00,,,0.00,WeatherCatV1.11B39,2013-02-08 11:20:00,
2013-02-08 06:25:00,45.2,44.1,29.94,ENE,75,0.0,0.0,96,0.00,,,0.00,WeatherCatV1.11B39,2013-02-08 11:25:00,
2013-02-08 06:30:00,45.2,44.1,29.94,ENE,75,0.0,0.0,96,0.00,,,0.00,WeatherCatV1.11B39,2013-02-08 11:30:00,
2013-02-08 06:35:00,45.2,44.1,29.94,ENE,75,0.0,0.0,96,0.00,,,0.00,WeatherCatV1.11B39,2013-02-08 11:35:00,
2013-02-08 06:40:00,45.2,44.1,29.94,ENE,75,0.0,0.0,96,0.00,,,0.00,WeatherCatV1.11B39,2013-02-08 11:40:00,
2013-02-08 06:46:00,45.4,44.3,29.94,ENE,75,0.0,0.0,96,0.00,,,0.00,WeatherCatV1.11B39,2013-02-08 11:46:00,
2013-02-08 06:51:00,45.4,44.3,29.94,ENE,75,0.0,0.0,96,0.00,,,0.00,WeatherCatV1.11B39,2013-02-08 11:51:00,
2013-02-08 06:56:00,45.4,44.3,29.94,ENE,75,0.0,0.0,96,0.00,,,0.00,WeatherCatV1.11B39,2013-02-08 11:56:00,
2013-02-08 07:01:00,45.2,44.1,29.94,ENE,75,0.0,0.0,96,0.00,,,0.00,WeatherCatV1.11B39,2013-02-08 12:01:00,
2013-02-08 07:06:00,45.2,44.1,29.94,ENE,75,0.0,0.0,96,0.00,,,0.00,WeatherCatV1.11B39,2013-02-08 12:06:00,
2013-02-08 07:11:00,45.2,44.1,29.94,ENE,75,0.0,0.0,96,0.00,,,0.00,WeatherCatV1.11B39,2013-02-08 12:11:00,
2013-02-08 07:16:00,45.2,44.1,29.96,ENE,75,0.0,0.0,96,0.00,,,0.00,WeatherCatV1.11B39,2013-02-08 12:16:00,
2013-02-08 07:21:00,45.2,44.1,29.96,ENE,75,0.0,0.0,96,0.00,,,0.00,WeatherCatV1.11B39,2013-02-08 12:21:00,
2013-02-08 07:26:00,45.2,44.1,29.96,ENE,75,0.0,0.0,96,0.00,,,0.00,WeatherCatV1.11B39,2013-02-08 12:26:00,
2013-02-08 07:31:00,45.2,44.1,29.96,ENE,75,0.0,0.0,96,0.00,,,0.00,WeatherCatV1.11B39,2013-02-08 12:31:00,
2013-02-08 07:36:00,45.4,44.3,29.96,ENE,75,0.0,0.0,96,0.00,,,0.00,WeatherCatV1.11B39,2013-02-08 12:36:00,
2013-02-08 07:41:00,45.4,44.3,29.96,ENE,75,0.0,0.0,96,0.00,,,0.00,WeatherCatV1.11B39,2013-02-08 12:41:00,
2013-02-08 07:46:00,45.4,44.3,29.96,ENE,75,0.0,0.0,96,0.00,,,0.00,WeatherCatV1.11B39,2013-02-08 12:46:00,
2013-02-08 07:51:00,45.4,44.3,29.96,ENE,75,0.0,0.0,96,0.00,,,0.00,WeatherCatV1.11B39,2013-02-08 12:51:00,
2013-02-08 07:56:00,45.4,44.3,29.96,ENE,75,0.0,0.0,96,0.00,,,0.00,WeatherCatV1.11B39,2013-02-08 12:56:00,
2013-02-08 08:01:00,45.4,44.3,29.96,ENE,75,0.0,0.0,96,0.00,,,0.00,WeatherCatV1.11B39,2013-02-08 13:01:00,
2013-02-08 08:06:00,45.4,44.3,29.96,ENE,75,0.0,0.0,96,0.00,,,0.00,WeatherCatV1.11B39,2013-02-08 13:06:00,
2013-02-08 08:11:00,45.4,44.3,29.96,ENE,75,0.0,0.0,96,0.00,,,0.00,WeatherCatV1.11B39,2013-02-08 13:11:00,
2013-02-08 08:16:00,45.4,44.3,29.96,ENE,75,0.0,0.0,96,0.00,,,0.00,WeatherCatV1.11B39,2013-02-08 13:16:00,
2013-02-08 08:21:00,45.4,44.3,29.96,ENE,75,0.0,0.0,96,0.00,,,0.00,WeatherCatV1.11B39,2013-02-08 13:21:00,
2013-02-08 08:26:00,45.4,44.3,29.96,ENE,75,0.0,0.0,96,0.00,,,0.00,WeatherCatV1.11B39,2013-02-08 13:26:00,
2013-02-08 08:31:00,45.4,44.3,29.97,East,82,0.0,0.0,96,0.00,,,0.00,WeatherCatV1.11B39,2013-02-08 13:31:00,
2013-02-08 08:36:00,46.4,45.3,29.97,NNE,31,0.0,0.0,96,0.00,,,0.00,WeatherCatV1.11B39,2013-02-08 13:36:00,
2013-02-08 08:41:00,46.5,45.4,29.97,NNE,25,0.0,0.0,96,0.00,,,0.00,WeatherCatV1.11B39,2013-02-08 13:41:00,
2013-02-08 08:46:00,46.7,45.6,29.97,NNE,25,0.0,0.0,96,0.00,,,0.00,WeatherCatV1.11B39,2013-02-08 13:46:00,
2013-02-08 08:51:00,46.7,45.3,29.97,NNE,25,0.0,0.0,95,0.00,,,0.00,WeatherCatV1.11B39,2013-02-08 13:51:00,
2013-02-08 08:56:00,46.7,45.1,29.97,NNE,23,0.0,0.0,94,0.00,,,0.00,WeatherCatV1.11B39,2013-02-08 13:56:00,
2013-02-08 09:01:00,47.9,46.0,29.97,NNE,23,0.0,0.0,93,0.00,,,0.00,WeatherCatV1.11B39,2013-02-08 14:01:00,
2013-02-08 09:06:00,47.9,46.0,29.97,NNE,18,0.0,0.0,93,0.00,,,0.00,WeatherCatV1.11B39,2013-02-08 14:06:00,
2013-02-08 09:11:00,47.9,45.7,29.97,NNE,17,0.0,0.0,92,0.00,,,0.00,WeatherCatV1.11B39,2013-02-08 14:11:00,
2013-02-08 09:16:00,48.8,46.3,29.98,NNW,342,0.0,2.0,91,0.00,,,0.00,WeatherCatV1.11B39,2013-02-08 14:16:00,
2013-02-08 09:21:00,48.8,46.0,29.98,NW,309,0.0,1.0,90,0.00,,,0.00,WeatherCatV1.11B39,2013-02-08 14:21:00,
2013-02-08 09:26:00,48.5,45.4,29.98,NW,309,0.0,0.0,89,0.00,,,0.00,WeatherCatV1.11B39,2013-02-08 14:26:00,
2013-02-08 09:31:00,48.6,45.5,29.98,NW,309,0.0,0.0,89,0.00,,,0.00,WeatherCatV1.11B39,2013-02-08 14:31:00,
2013-02-08 09:36:00,48.6,45.2,29.98,NW,309,0.0,0.0,88,0.00,,,0.00,WeatherCatV1.11B39,2013-02-08 14:36:00,
2013-02-08 09:41:00,48.6,45.2,29.98,NW,309,0.0,2.0,88,0.00,,,0.00,WeatherCatV1.11B39,2013-02-08 14:41:00,
2013-02-08 09:46:00,48.8,45.4,29.98,NW,309,0.0,0.0,88,0.00,,,0.00,WeatherCatV1.11B39,2013-02-08 14:46:00,
2013-02-08 09:51:00,49.1,45.7,29.98,WNW,296,0.0,2.0,88,0.00,,,0.00,WeatherCatV1.11B39,2013-02-08 14:51:00,
2013-02-08 09:56:00,49.4,45.4,29.98,WNW,296,0.0,0.0,86,0.00,,,0.00,WeatherCatV1.11B39,2013-02-08 14:56:00,
2013-02-08 10:01:00,49.5,45.5,29.99,WNW,296,0.0,0.0,86,0.00,,,0.00,WeatherCatV1.11B39,2013-02-08 15:01:00,
2013-02-08 10:06:00,49.5,45.2,29.99,NW,304,0.0,4.0,85,0.00,,,0.00,WeatherCatV1.11B39,2013-02-08 15:06:00,
2013-02-08 10:11:00,49.6,45.3,29.99,WNW,299,0.0,0.0,85,0.00,,,0.00,WeatherCatV1.11B39,2013-02-08 15:11:00,
2013-02-08 10:16:00,49.5,45.2,29.99,WSW,258,0.0,0.0,85,0.00,,,0.00,WeatherCatV1.11B39,2013-02-08 15:16:00,
2013-02-08 10:21:00,49.5,45.2,29.99,WSW,254,0.0,0.0,85,0.00,,,0.00,WeatherCatV1.11B39,2013-02-08 15:21:00,
2013-02-08 10:26:00,49.5,44.9,29.99,WNW,292,0.0,1.0,84,0.00,,,0.00,WeatherCatV1.11B39,2013-02-08 15:26:00,
2013-02-08 10:31:00,49.6,45.3,29.98,WNW,292,0.0,0.0,85,0.00,,,0.00,WeatherCatV1.11B39,2013-02-08 15:31:00,
2013-02-08 10:36:00,49.6,45.0,29.98,WNW,295,0.0,2.0,84,0.00,,,0.00,WeatherCatV1.11B39,2013-02-08 15:36:00,
2013-02-08 10:41:00,49.8,45.2,29.98,WSW,248,0.0,1.0,84,0.00,,,0.00,WeatherCatV1.11B39,2013-02-08 15:41:00,
2013-02-08 10:46:00,49.9,45.3,29.98,NNW,332,0.0,0.0,84,0.00,,,0.00,WeatherCatV1.11B39,2013-02-08 15:46:00,
2013-02-08 10:51:00,49.9,44.9,29.98,WNW,284,0.0,2.0,83,0.00,,,0.00,WeatherCatV1.11B39,2013-02-08 15:51:00,
2013-02-08 10:56:00,49.9,44.9,29.98,WNW,284,1.0,1.0,83,0.00,,,0.00,WeatherCatV1.11B39,2013-02-08 15:56:00,
2013-02-08 11:01:00,49.9,45.3,30.00,West,268,0.0,5.0,84,0.00,,,0.00,WeatherCatV1.11B39,2013-02-08 16:01:00,
2013-02-08 11:06:00,49.8,45.2,30.00,NW,304,0.0,0.0,84,0.00,,,0.00,WeatherCatV1.11B39,2013-02-08 16:06:00,
2013-02-08 11:11:00,49.8,45.2,30.00,NW,304,0.0,0.0,84,0.00,,,0.00,WeatherCatV1.11B39,2013-02-08 16:11:00,
2013-02-08 11:16:00,49.9,45.3,29.99,NW,304,0.0,0.0,84,0.00,,,0.00,WeatherCatV1.11B39,2013-02-08 16:16:00,
2013-02-08 11:21:00,49.9,45.3,29.99,NW,308,0.0,2.0,84,0.00,,,0.00,WeatherCatV1.11B39,2013-02-08 16:21:00,
2013-02-08 11:26:00,50.1,45.5,29.99,NW,309,0.0,0.0,84,0.00,,,0.00,WeatherCatV1.11B39,2013-02-08 16:26:00,
2013-02-08 11:31:00,50.2,45.6,29.99,NW,313,2.0,2.0,84,0.00,,,0.00,WeatherCatV1.11B39,2013-02-08 16:31:00,
2013-02-08 11:36:00,50.2,45.6,29.99,NW,313,2.0,2.0,84,0.00,,,0.00,WeatherCatV1.11B39,2013-02-08 16:36:00,
2013-02-08 11:41:00,50.2,44.9,29.99,WNW,302,3.0,3.0,82,0.00,,,0.00,WeatherCatV1.11B39,2013-02-08 16:41:00,
2013-02-08 11:46:00,50.2,44.9,29.98,WNW,302,3.0,3.0,82,0.00,,,0.00,WeatherCatV1.11B39,2013-02-08 16:46:00,
2013-02-08 11:51:00,50.5,45.2,29.98,NNW,346,0.0,0.0,82,0.00,,,0.00,WeatherCatV1.11B39,2013-02-08 16:51:00,
2013-02-08 11:56:00,50.5,45.2,29.98,NW,311,0.0,1.0,82,0.00,,,0.00,WeatherCatV1.11B39,2013-02-08 16:56:00,
2013-02-08 12:01:00,50.5,45.2,29.98,NW,311,0.0,0.0,82,0.00,,,0.00,WeatherCatV1.11B39,2013-02-08 17:01:00,
2013-02-08 12:06:00,50.4,45.1,29.98,NW,309,2.0,2.0,82,0.00,,,0.00,WeatherCatV1.11B39,2013-02-08 17:06:00,
2013-02-08 12:11:00,50.4,45.1,29.98,NW,309,0.0,0.0,82,0.00,,,0.00,WeatherCatV1.11B39,2013-02-08 17:11:00,
2013-02-08 12:16:00,50.4,45.1,29.99,NW,309,0.0,0.0,82,0.00,,,0.00,WeatherCatV1.11B39,2013-02-08 17:16:00,
2013-02-08 12:21:00,50.4,45.1,29.99,NW,311,0.0,0.0,82,0.00,,,0.00,WeatherCatV1.11B39,2013-02-08 17:21:00,
2013-02-08 12:26:00,50.4,45.1,29.99,NW,311,0.0,0.0,82,0.00,,,0.00,WeatherCatV1.11B39,2013-02-08 17:26:00,
2013-02-08 12:31:00,50.1,44.8,29.98,North,0,0.0,3.0,82,0.00,,,0.00,WeatherCatV1.11B39,2013-02-08 17:31:00,
2013-02-08 12:36:00,50.1,44.8,29.98,North,0,0.0,0.0,82,0.00,,,0.00,WeatherCatV1.11B39,2013-02-08 17:36:00,
2013-02-08 12:41:00,50.1,44.8,29.98,West,281,0.0,0.0,82,0.00,,,0.00,WeatherCatV1.11B39,2013-02-08 17:41:00,
2013-02-08 12:46:00,50.1,45.8,29.98,North,0,3.0,6.0,85,0.00,,,0.00,WeatherCatV1.11B39,2013-02-08 17:46:00,
2013-02-08 12:51:00,50.1,45.8,29.98,North,0,3.0,3.0,85,0.00,,,0.00,WeatherCatV1.11B39,2013-02-08 17:51:00,
2013-02-08 12:56:00,50.1,45.8,29.98,North,0,3.0,3.0,85,0.00,,,0.00,WeatherCatV1.11B39,2013-02-08 17:56:00,
2013-02-08 13:01:00,-999.0,-99.9,29.97,North,-999,-999.0,0.0,-999,0.00,,,0.00,WeatherCatV1.11B39,2013-02-08 18:01:00,
2013-02-08 13:06:00,-999.0,-99.9,29.97,North,-999,-999.0,0.0,-999,0.00,,,0.00,WeatherCatV1.11B39,2013-02-08 18:06:00,
2013-02-08 13:11:00,-999.0,-99.9,29.97,North,-999,-999.0,0.0,-999,0.00,,,0.00,WeatherCatV1.11B39,2013-02-08 18:11:00,
2013-02-08 13:16:00,50.8,-99.9,29.96,North,0,3.0,6.0,-999,0.00,,,0.00,WeatherCatV1.11B39,2013-02-08 18:16:00,
2013-02-08 13:21:00,51.3,-99.9,29.96,NNW,332,0.0,3.0,-999,0.00,,,0.00,WeatherCatV1.11B39,2013-02-08 18:21:00,
2013-02-08 13:26:00,51.4,-99.9,29.96,WNW,292,0.0,3.0,-999,0.00,,,0.00,WeatherCatV1.11B39,2013-02-08 18:26:00,
2013-02-08 13:31:00,51.9,-99.9,29.96,WSW,253,1.0,1.0,-999,0.00,,,0.00,WeatherCatV1.11B39,2013-02-08 18:31:00,
2013-02-08 13:36:00,52.2,-99.9,29.96,West,281,0.0,2.0,-999,0.00,,,0.00,WeatherCatV1.11B39,2013-02-08 18:36:00,
2013-02-08 13:41:00,52.6,-99.9,29.96,North,349,1.0,3.0,-999,0.00,,,0.00,WeatherCatV1.11B39,2013-02-08 18:41:00,
2013-02-08 13:46:00,52.8,-99.9,29.96,NNW,340,0.0,8.0,-999,0.00,,,0.00,WeatherCatV1.11B39,2013-02-08 18:46:00,
2013-02-08 13:51:00,52.9,-99.9,29.96,WNW,292,3.0,3.0,-999,0.00,,,0.00,WeatherCatV1.11B39,2013-02-08 18:51:00,
2013-02-08 13:56:00,52.9,-99.9,29.96,WNW,296,0.0,0.0,-999,0.00,,,0.00,WeatherCatV1.11B39,2013-02-08 18:56:00,
2013-02-08 14:01:00,53.1,-99.9,29.95,SW,229,7.0,8.0,-999,0.00,,,0.00,WeatherCatV1.11B39,2013-02-08 19:01:00,
2013-02-08 14:06:00,53.1,-99.9,29.95,NW,312,0.0,1.0,-999,0.00,,,0.00,WeatherCatV1.11B39,2013-02-08 19:06:00,
2013-02-08 14:11:00,53.5,-99.9,29.95,West,275,0.0,0.0,-999,0.00,,,0.00,WeatherCatV1.11B39,2013-02-08 19:11:00,
2013-02-08 14:16:00,53.5,-99.9,29.94,West,272,0.0,0.0,-999,0.00,,,0.00,WeatherCatV1.11B39,2013-02-08 19:16:00,
2013-02-08 14:21:00,53.9,-99.9,29.94,North,352,2.0,2.0,-999,0.00,,,0.00,WeatherCatV1.11B39,2013-02-08 19:21:00,
2013-02-08 14:26:00,53.9,-99.9,29.94,North,352,0.0,0.0,-999,0.00,,,0.00,WeatherCatV1.11B39,2013-02-08 19:26:00,
2013-02-08 14:31:00,53.9,-99.9,29.94,NNW,333,0.0,0.0,-999,0.00,,,0.00,WeatherCatV1.11B39,2013-02-08 19:31:00,
2013-02-08 14:36:00,54.7,-99.9,29.94,NW,323,0.0,0.0,-999,0.00,,,0.00,WeatherCatV1.11B39,2013-02-08 19:36:00,
2013-02-08 14:41:00,55.1,46.2,29.94,NNW,328,0.0,3.0,72,0.00,,,0.00,WeatherCatV1.11B39,2013-02-08 19:41:00,
2013-02-08 14:46:00,55.4,46.5,29.94,West,278,0.0,1.0,72,0.00,,,0.00,WeatherCatV1.11B39,2013-02-08 19:46:00,
2013-02-08 14:51:00,55.6,46.7,29.94,North,0,6.0,6.0,72,0.00,,,0.00,WeatherCatV1.11B39,2013-02-08 19:51:00,
2013-02-08 14:56:00,55.6,46.7,29.94,North,0,6.0,6.0,72,0.00,,,0.00,WeatherCatV1.11B39,2013-02-08 19:56:00,
2013-02-08 15:01:00,55.6,46.7,29.94,North,0,6.0,6.0,72,0.00,,,0.00,WeatherCatV1.11B39,2013-02-08 20:01:00,
2013-02-08 15:06:00,55.4,46.5,29.94,North,6,7.0,7.0,72,0.00,,,0.00,WeatherCatV1.11B39,2013-02-08 20:06:00,
2013-02-08 15:11:00,55.3,46.4,29.94,NNW,330,3.0,11.0,72,0.00,,,0.00,WeatherCatV1.11B39,2013-02-08 20:11:00,
2013-02-08 15:16:00,55.1,46.2,29.95,North,356,6.0,6.0,72,0.00,,,0.00,WeatherCatV1.11B39,2013-02-08 20:16:00,
2013-02-08 15:21:00,55.0,46.1,29.95,North,356,9.0,10.0,72,0.00,,,0.00,WeatherCatV1.11B39,2013-02-08 20:21:00,
2013-02-08 15:26:00,54.7,45.9,29.95,North,357,8.0,12.0,72,0.00,,,0.00,WeatherCatV1.11B39,2013-02-08 20:26:00,
2013-02-08 15:31:00,54.5,45.7,29.96,North,0,7.0,11.0,72,0.00,,,0.00,WeatherCatV1.11B39,2013-02-08 20:31:00,
2013-02-08 15:36:00,54.4,45.6,29.96,NNW,335,5.0,5.0,72,0.00,,,0.00,WeatherCatV1.11B39,2013-02-08 20:36:00,
2013-02-08 15:41:00,54.4,45.6,29.96,NNW,342,0.0,3.0,72,0.00,,,0.00,WeatherCatV1.11B39,2013-02-08 20:41:00,
2013-02-08 15:46:00,54.4,45.6,29.96,North,1,6.0,6.0,72,0.00,,,0.00,WeatherCatV1.11B39,2013-02-08 20:46:00,
2013-02-08 15:51:00,54.4,45.6,29.96,NNE,32,7.0,7.0,72,0.00,,,0.00,WeatherCatV1.11B39,2013-02-08 20:51:00,
2013-02-08 15:56:00,54.4,45.6,29.96,North,0,6.0,12.0,72,0.00,,,0.00,WeatherCatV1.11B39,2013-02-08 20:56:00,
2013-02-08 16:01:00,54.5,45.7,29.97,South,179,0.0,2.0,72,0.00,,,0.00,WeatherCatV1.11B39,2013-02-08 21:01:00,
2013-02-08 16:06:00,54.7,45.9,29.97,North,1,6.0,6.0,72,0.00,,,0.00,WeatherCatV1.11B39,2013-02-08 21:06:00,
2013-02-08 16:11:00,54.7,45.9,29.97,North,357,10.0,11.0,72,0.00,,,0.00,WeatherCatV1.11B39,2013-02-08 21:11:00,
2013-02-08 16:16:00,54.7,45.9,29.97,NW,319,2.0,6.0,72,0.00,,,0.00,WeatherCatV1.11B39,2013-02-08 21:16:00,
2013-02-08 16:21:00,54.8,45.9,29.97,WNW,302,3.0,6.0,72,0.00,,,0.00,WeatherCatV1.11B39,2013-02-08 21:21:00,
2013-02-08 16:26:00,54.8,45.9,29.97,North,10,0.0,0.0,72,0.00,,,0.00,WeatherCatV1.11B39,2013-02-08 21:26:00,
2013-02-08 16:31:00,55.0,46.1,29.96,North,0,2.0,2.0,72,0.00,,,0.00,WeatherCatV1.11B39,2013-02-08 21:31:00,
2013-02-08 16:36:00,55.0,46.1,29.96,NW,316,2.0,2.0,72,0.00,,,0.00,WeatherCatV1.11B39,2013-02-08 21:36:00,
2013-02-08 16:41:00,55.0,46.1,29.96,NNW,336,0.0,0.0,72,0.00,,,0.00,WeatherCatV1.11B39,2013-02-08 21:41:00,
2013-02-08 16:46:00,55.1,46.2,29.97,North,354,3.0,10.0,72,0.00,,,0.00,WeatherCatV1.11B39,2013-02-08 21:46:00,
2013-02-08 16:51:00,55.1,46.2,29.97,NNW,329,2.0,5.0,72,0.00,,,0.00,WeatherCatV1.11B39,2013-02-08 21:51:00,
2013-02-08 16:56:00,55.1,46.2,29.97,North,357,0.0,10.0,72,0.00,,,0.00,WeatherCatV1.11B39,2013-02-08 21:56:00,
2013-02-08 17:01:00,55.0,46.1,29.98,NNW,333,5.0,7.0,72,0.00,,,0.00,WeatherCatV1.11B39,2013-02-08 22:01:00,
2013-02-08 17:06:00,55.0,46.1,29.98,NNW,328,6.0,6.0,72,0.00,,,0.00,WeatherCatV1.11B39,2013-02-08 22:06:00,
2013-02-08 17:07:00,54.8,45.9,29.98,NW,312,6.0,6.0,72,0.00,,,0.00,WeatherCatV1.11B39,2013-02-08 22:07:00,
2013-02-08 17:12:00,54.7,45.9,29.98,NNW,346,7.0,12.0,72,0.00,,,0.00,WeatherCatV1.11B39,2013-02-08 22:12:00,
2013-02-08 17:17:00,54.5,45.7,29.98,WSW,247,3.0,8.0,72,0.00,,,0.00,WeatherCatV1.11B39,2013-02-08 22:17:00,
2013-02-08 17:22:00,54.5,45.7,29.98,NW,304,6.0,6.0,72,0.00,,,0.00,WeatherCatV1.11B39,2013-02-08 22:22:00,
2013-02-08 17:27:00,54.2,45.4,29.98,WNW,292,0.0,0.0,72,0.00,,,0.00,WeatherCatV1.11B39,2013-02-08 22:27:00,
2013-02-08 17:32:00,54.1,45.3,29.99,NNW,329,0.0,3.0,72,0.00,,,0.00,WeatherCatV1.11B39,2013-02-08 22:32:00,
2013-02-08 17:37:00,54.1,45.3,29.99,NNW,329,0.0,0.0,72,0.00,,,0.00,WeatherCatV1.11B39,2013-02-08 22:37:00,
2013-02-08 17:42:00,54.1,45.3,29.99,North,349,0.0,0.0,72,0.00,,,0.00,WeatherCatV1.11B39,2013-02-08 22:42:00,
2013-02-08 17:47:00,53.6,44.8,30.00,North,10,0.0,0.0,72,0.00,,,0.00,WeatherCatV1.11B39,2013-02-08 22:47:00,
2013-02-08 17:52:00,53.3,44.5,30.00,North,356,0.0,0.0,72,0.00,,,0.00,WeatherCatV1.11B39,2013-02-08 22:52:00,
2013-02-08 17:57:00,53.1,44.3,30.00,NNW,342,0.0,0.0,72,0.00,,,0.00,WeatherCatV1.11B39,2013-02-08 22:57:00,
2013-02-08 18:02:00,52.5,43.7,30.01,WNW,287,0.0,0.0,72,0.00,,,0.00,WeatherCatV1.11B39,2013-02-08 23:02:00,
2013-02-08 18:07:00,52.3,43.5,30.01,North,356,1.0,1.0,72,0.00,,,0.00,WeatherCatV1.11B39,2013-02-08 23:07:00,
2013-02-08 18:12:00,51.9,43.2,30.01,NW,311,0.0,1.0,72,0.00,,,0.00,WeatherCatV1.11B39,2013-02-08 23:12:00,
2013-02-08 18:17:00,51.7,43.0,30.01,North,0,0.0,0.0,72,0.00,,,0.00,WeatherCatV1.11B39,2013-02-08 23:17:00,
2013-02-08 18:22:00,51.4,42.7,30.01,NNW,342,0.0,0.0,72,0.00,,,0.00,WeatherCatV1.11B39,2013-02-08 23:22:00,
2013-02-08 18:27:00,51.0,42.3,30.01,NNW,335,0.0,0.0,72,0.00,,,0.00,WeatherCatV1.11B39,2013-02-08 23:27:00,
2013-02-08 18:32:00,50.5,41.8,30.02,NW,313,0.0,0.0,72,0.00,,,0.00,WeatherCatV1.11B39,2013-02-08 23:32:00,
2013-02-08 18:37:00,50.2,41.5,30.02,NW,312,0.0,0.0,72,0.00,,,0.00,WeatherCatV1.11B39,2013-02-08 23:37:00,
2013-02-08 18:42:00,49.9,41.2,30.02,North,0,0.0,0.0,72,0.00,,,0.00,WeatherCatV1.11B39,2013-02-08 23:42:00,
2013-02-08 18:47:00,49.9,41.2,30.03,North,0,0.0,0.0,72,0.00,,,0.00,WeatherCatV1.11B39,2013-02-08 23:47:00,
2013-02-08 18:52:00,49.9,41.2,30.03,North,0,0.0,0.0,72,0.00,,,0.00,WeatherCatV1.11B39,2013-02-08 23:52:00,
2013-02-08 18:57:00,-999.0,-99.9,30.03,North,-999,-999.0,0.0,-999,0.00,,,0.00,WeatherCatV1.11B39,2013-02-08 23:57:00,
2013-02-08 19:02:00,-999.0,-99.9,30.04,North,-999,-999.0,0.0,-999,0.00,,,0.00,WeatherCatV1.11B39,2013-02-09 00:02:00,
2013-02-08 19:07:00,-999.0,-99.9,30.04,North,-999,-999.0,0.0,-999,0.00,,,0.00,WeatherCatV1.11B39,2013-02-09 00:07:00,
2013-02-08 19:12:00,-999.0,-99.9,30.04,North,-999,-999.0,0.0,-999,0.00,,,0.00,WeatherCatV1.11B39,2013-02-09 00:12:00,
2013-02-08 19:17:00,-999.0,-99.9,30.05,North,-999,-999.0,0.0,-999,0.00,,,0.00,WeatherCatV1.11B39,2013-02-09 00:17:00,
2013-02-08 19:22:00,-999.0,-99.9,30.05,North,-999,-999.0,0.0,-999,0.00,,,0.00,WeatherCatV1.11B39,2013-02-09 00:22:00,
2013-02-08 19:27:00,-999.0,-99.9,30.05,North,-999,-999.0,0.0,-999,0.00,,,0.00,WeatherCatV1.11B39,2013-02-09 00:27:00,
2013-02-08 19:32:00,46.4,33.7,30.06,NNW,346,0.0,0.0,61,0.00,,,0.00,WeatherCatV1.11B39,2013-02-09 00:32:00,
2013-02-08 19:37:00,46.4,33.7,30.06,North,349,0.0,0.0,61,0.00,,,0.00,WeatherCatV1.11B39,2013-02-09 00:37:00,
2013-02-08 19:42:00,46.4,33.7,30.06,North,349,0.0,0.0,61,0.00,,,0.00,WeatherCatV1.11B39,2013-02-09 00:42:00,
2013-02-08 19:47:00,46.1,33.4,30.06,North,349,0.0,0.0,61,0.00,,,0.00,WeatherCatV1.11B39,2013-02-09 00:47:00,
2013-02-08 19:52:00,46.1,33.8,30.06,WNW,295,0.0,2.0,62,0.00,,,0.00,WeatherCatV1.11B39,2013-02-09 00:52:00,
2013-02-08 19:57:00,46.1,33.8,30.06,WNW,295,0.0,0.0,62,0.00,,,0.00,WeatherCatV1.11B39,2013-02-09 00:57:00,
2013-02-08 20:02:00,46.0,33.3,30.07,SSW,203,2.0,2.0,61,0.00,,,0.00,WeatherCatV1.11B39,2013-02-09 01:02:00,
2013-02-08 20:07:00,46.1,33.0,30.07,SSW,205,0.0,0.0,60,0.00,,,0.00,WeatherCatV1.11B39,2013-02-09 01:07:00,
2013-02-08 20:12:00,45.8,33.1,30.07,SSW,205,0.0,0.0,61,0.00,,,0.00,WeatherCatV1.11B39,2013-02-09 01:12:00,
2013-02-08 20:17:00,45.8,33.1,30.07,SSW,205,0.0,0.0,61,0.00,,,0.00,WeatherCatV1.11B39,2013-02-09 01:17:00,
2013-02-08 20:22:00,44.8,32.2,30.07,SSW,208,0.0,0.0,61,0.00,,,0.00,WeatherCatV1.11B39,2013-02-09 01:22:00,
2013-02-08 20:27:00,44.8,32.2,30.07,SSW,208,0.0,0.0,61,0.00,,,0.00,WeatherCatV1.11B39,2013-02-09 01:27:00,
2013-02-08 20:32:00,44.8,32.2,30.08,West,271,0.0,0.0,61,0.00,,,0.00,WeatherCatV1.11B39,2013-02-09 01:32:00,
2013-02-08 20:37:00,44.8,32.2,30.08,West,272,0.0,0.0,61,0.00,,,0.00,WeatherCatV1.11B39,2013-02-09 01:37:00,
2013-02-08 20:42:00,44.8,32.2,30.08,West,272,0.0,0.0,61,0.00,,,0.00,WeatherCatV1.11B39,2013-02-09 01:42:00,
2013-02-08 20:47:00,44.8,32.2,30.08,West,272,0.0,0.0,61,0.00,,,0.00,WeatherCatV1.11B39,2013-02-09 01:47:00,
2013-02-08 20:52:00,44.8,32.2,30.08,West,272,0.0,0.0,61,0.00,,,0.00,WeatherCatV1.11B39,2013-02-09 01:52:00,
2013-02-08 20:57:00,43.6,31.0,30.08,North,357,0.0,0.0,61,0.00,,,0.00,WeatherCatV1.11B39,2013-02-09 01:57:00,
2013-02-08 21:02:00,43.6,31.0,30.09,North,357,0.0,0.0,61,0.00,,,0.00,WeatherCatV1.11B39,2013-02-09 02:02:00,
2013-02-08 21:07:00,43.6,31.0,30.09,North,357,0.0,0.0,61,0.00,,,0.00,WeatherCatV1.11B39,2013-02-09 02:07:00,
2013-02-08 21:12:00,-999.0,-99.9,30.09,North,-999,-999.0,0.0,-999,0.00,,,0.00,WeatherCatV1.11B39,2013-02-09 02:12:00,
2013-02-08 21:17:00,-999.0,-99.9,30.09,North,-999,-999.0,0.0,-999,0.00,,,0.00,WeatherCatV1.11B39,2013-02-09 02:17:00,
2013-02-08 21:22:00,-999.0,-99.9,30.09,North,-999,-999.0,0.0,-999,0.00,,,0.00,WeatherCatV1.11B39,2013-02-09 02:22:00,
2013-02-08 21:27:00,-999.0,-99.9,30.09,North,-999,-999.0,0.0,-999,0.00,,,0.00,WeatherCatV1.11B39,2013-02-09 02:27:00,
2013-02-08 21:32:00,-999.0,-99.9,30.09,North,-999,-999.0,0.0,-999,0.00,,,0.00,WeatherCatV1.11B39,2013-02-09 02:32:00,
2013-02-08 21:37:00,-999.0,-99.9,30.09,North,-999,-999.0,0.0,-999,0.00,,,0.00,WeatherCatV1.11B39,2013-02-09 02:37:00,
2013-02-08 21:42:00,-999.0,-99.9,30.09,North,-999,-999.0,0.0,-999,0.00,,,0.00,WeatherCatV1.11B39,2013-02-09 02:42:00,
2013-02-08 21:47:00,-999.0,-99.9,30.10,North,-999,-999.0,0.0,-999,0.00,,,0.00,WeatherCatV1.11B39,2013-02-09 02:47:00,
2013-02-08 21:52:00,-999.0,-99.9,30.10,North,-999,-999.0,0.0,-999,0.00,,,0.00,WeatherCatV1.11B39,2013-02-09 02:52:00,
2013-02-08 21:57:00,-999.0,-99.9,30.10,North,-999,-999.0,0.0,-999,0.00,,,0.00,WeatherCatV1.11B39,2013-02-09 02:57:00,
2013-02-08 22:02:00,-999.0,-99.9,30.12,North,-999,-999.0,0.0,-999,0.00,,,0.00,WeatherCatV1.11B39,2013-02-09 03:02:00,
2013-02-08 22:07:00,-999.0,-99.9,30.12,North,-999,-999.0,0.0,-999,0.00,,,0.00,WeatherCatV1.11B39,2013-02-09 03:07:00,
2013-02-08 22:12:00,-999.0,-99.9,30.12,North,-999,-999.0,0.0,-999,0.00,,,0.00,WeatherCatV1.11B39,2013-02-09 03:12:00,
2013-02-08 22:17:00,-999.0,-99.9,30.13,North,-999,-999.0,0.0,-999,0.00,,,0.00,WeatherCatV1.11B39,2013-02-09 03:17:00,
2013-02-08 22:22:00,-999.0,-99.9,30.13,North,-999,-999.0,0.0,-999,0.00,,,0.00,WeatherCatV1.11B39,2013-02-09 03:22:00,
2013-02-08 22:27:00,-999.0,-99.9,30.13,North,-999,-999.0,0.0,-999,0.00,,,0.00,WeatherCatV1.11B39,2013-02-09 03:27:00,
2013-02-08 22:32:00,-999.0,-99.9,30.12,North,-999,-999.0,0.0,-999,0.00,,,0.00,WeatherCatV1.11B39,2013-02-09 03:32:00,
2013-02-08 22:37:00,-999.0,-99.9,30.12,North,-999,-999.0,0.0,-999,0.00,,,0.00,WeatherCatV1.11B39,2013-02-09 03:37:00,
2013-02-08 22:42:00,-999.0,-99.9,30.12,North,-999,-999.0,0.0,-999,0.00,,,0.00,WeatherCatV1.11B39,2013-02-09 03:42:00,
2013-02-08 22:47:00,-999.0,-99.9,30.13,North,-999,-999.0,0.0,-999,0.00,,,0.00,WeatherCatV1.11B39,2013-02-09 03:47:00,
2013-02-08 22:52:00,-999.0,-99.9,30.13,North,-999,-999.0,0.0,-999,0.00,,,0.00,WeatherCatV1.11B39,2013-02-09 03:52:00,
2013-02-08 22:57:00,-999.0,-99.9,30.13,North,-999,-999.0,0.0,-999,0.00,,,0.00,WeatherCatV1.11B39,2013-02-09 03:57:00,
2013-02-08 23:02:00,-999.0,-99.9,30.12,North,-999,-999.0,0.0,-999,0.00,,,0.00,WeatherCatV1.11B39,2013-02-09 04:02:00,
2013-02-08 23:07:00,-999.0,-99.9,30.12,North,-999,-999.0,0.0,-999,0.00,,,0.00,WeatherCatV1.11B39,2013-02-09 04:07:00,
2013-02-08 23:12:00,-999.0,-99.9,30.12,North,-999,-999.0,0.0,-999,0.00,,,0.00,WeatherCatV1.11B39,2013-02-09 04:12:00,
2013-02-08 23:17:00,-999.0,-99.9,30.12,North,-999,-999.0,0.0,-999,0.00,,,0.00,WeatherCatV1.11B39,2013-02-09 04:17:00,
2013-02-08 23:22:00,-999.0,-99.9,30.12,North,-999,-999.0,0.0,-999,0.00,,,0.00,WeatherCatV1.11B39,2013-02-09 04:22:00,
2013-02-08 23:27:00,-999.0,-99.9,30.12,North,-999,-999.0,0.0,-999,0.00,,,0.00,WeatherCatV1.11B39,2013-02-09 04:27:00,
2013-02-08 23:32:00,-999.0,-99.9,30.11,North,-999,-999.0,0.0,-999,0.00,,,0.00,WeatherCatV1.11B39,2013-02-09 04:32:00,
2013-02-08 23:37:00,-999.0,-99.9,30.11,North,-999,-999.0,0.0,-999,0.00,,,0.00,WeatherCatV1.11B39,2013-02-09 04:37:00,
2013-02-08 23:42:00,-999.0,-99.9,30.11,North,-999,-999.0,0.0,-999,0.00,,,0.00,WeatherCatV1.11B39,2013-02-09 04:42:00,
2013-02-08 23:47:00,-999.0,-99.9,30.10,North,-999,-999.0,0.0,-999,0.00,,,0.00,WeatherCatV1.11B39,2013-02-09 04:47:00,
2013-02-08 23:52:00,-999.0,-99.9,30.10,North,-999,-999.0,0.0,-999,0.00,,,0.00,WeatherCatV1.11B39,2013-02-09 04:52:00,
2013-02-08 23:57:00,-999.0,-99.9,30.10,North,-999,-999.0,0.0,-999,0.00,,,0.00,WeatherCatV1.11B39,2013-02-09 04:57:00,